CAPE
0 0 0 0 0 0 0 0 0 0 0 0 0 0 0 0 0 0 0 0 0 312 397 166 144 123 42 48 109 214 455 544 637 603 472 512 715 824 715 798 686 595 539 408
0 0 0 0 0 0 0 0 0 0 0 0 0 0 0 0 0 0 0 0 0 11 302 116 115 127 107 120 154 199 402 523 667 813 731 657 570 718 749 845 712 501 434 114
0 0 0 0 0 0 0 0 0 0 0 0 0 0 0 0 0 0 0 0 0 0 10 214 156 183 150 133 175 164 430 557 679 944 969 1136 1045 869 823 690 646 373 329 137
0 0 0 0 0 0 0 0 0 0 0 0 0 0 0 0 0 0 0 0 0 0 0 215 249 249 300 274 290 355 550 892 1037 1131 1251 1358 1325 1298 1059 675 531 402 304 77
0 0 0 0 0 0 0 0 0 0 0 0 0 0 0 0 0 0 0 0 0 0 31 230 394 433 706 1067 1018 1186 1407 1552 1793 1748 1607 1487 1452 1298 751 545 490 404 148 3
0 0 0 0 0 0 0 0 0 0 0 0 0 0 0 0 0 0 0 107 413 471 710 899 1170 1098 1209 1392 1851 2043 2147 2565 2717 2716 2462 2037 1819 1351 965 612 510 294 69 14
0 0 0 0 0 0 0 0 0 0 0 0 0 0 0 0 0 0 0 281 255 167 883 1365 1642 1633 1600 1983 2205 2607 2871 3200 3353 2844 2580 2375 2003 1488 1095 740 627 367 66 0
0 0 0 0 0 0 0 0 0 0 0 0 0 0 0 0 0 0 0 0 0 458 1119 1633 1862 2011 2167 2218 2479 2525 2511 2520 2586 2579 2559 2226 1762 1282 877 664 505 251 127 63
0 0 0 0 0 0 0 0 0 0 0 0 0 0 0 0 0 0 0 0 0 76 1529 1733 2023 2132 2227 2469 2732 2767 2653 2495 2260 2023 1969 1800 1508 1174 724 282 170 143 35 0
0 0 0 0 0 0 0 0 0 0 0 0 0 0 0 0 0 0 0 0 0 48 1154 1942 2192 2133 2247 2604 2802 2653 2472 2329 1903 1780 1699 1375 1013 615 94 0 0 0 0 0
0 0 0 0 0 0 0 0 0 0 0 0 0 0 0 0 0 0 0 0 0 51 382 1349 2169 2209 2277 2270 2372 2365 2168 1926 1643 1494 1265 828 513 281 10 0 0 0 0 0
0 0 0 0 0 0 0 0 0 0 0 0 0 0 0 0 0 0 0 0 0 29 83 1040 2238 2181 2097 2036 2142 2176 1918 1731 1431 1215 765 323 81 13 0 0 0 0 0 0
0 0 0 0 0 0 0 0 0 0 0 0 0 0 0 0 0 0 0 15 496 841 1088 1706 2157 1923 2101 2159 2161 2085 1880 1502 1163 900 437 206 153 29 0 0 0 0 0 0
0 0 0 0 0 0 0 0 0 0 0 0 0 0 0 0 0 0 3 747 999 973 1157 1511 1928 1904 2088 2216 2152 2023 1652 1227 874 559 468 279 47 0 0 0 0 0 0 0
0 0 0 0 0 0 0 0 0 0 0 0 0 0 0 0 291 651 623 670 746 863 1031 1226 1438 1879 1900 1986 2012 1749 1256 942 648 504 347 85 1 0 0 0 0 0 0 0
0 0 0 0 0 0 0 0 0 0 0 0 0 0 0 57 28 20 8 15 59 191 705 941 985 1375 1948 1966 1854 1452 865 431 309 172 84 0 0 0 0 0 0 0 0 0
0 0 0 0 0 0 0 0 0 0 0 0 0 0 0 0 0 0 0 0 0 0 174 835 1145 1698 1912 1425 1244 268 0 17 18 75 19 0 0 0 0 0 0 0 0 0
0 0 0 0 0 0 0 0 0 0 0 0 2 0 0 0 0 0 0 0 0 0 271 1044 1511 1922 1513 1416 949 595 0 0 0 0 0 0 0 0 0 0 0 0 0 0
0 0 0 0 0 0 0 0 0 0 0 0 0 0 0 0 0 0 0 0 0 0 0 1301 1598 1470 1279 1033 844 653 146 10 0 0 0 0 0 0 0 0 0 0 0 0
0 0 0 0 0 0 0 0 0 0 0 0 0 0 0 0 0 0 0 0 0 0 5 835 1195 998 966 406 166 37 57 12 0 0 0 0 0 0 0 0 0 0 0 0
0 0 0 0 0 0 0 0 0 0 0 0 0 0 0 0 0 0 0 0 0 0 60 848 805 929 603 244 77 31 4 14 4 0 0 0 0 0 0 0 0 0 0 0
0 0 0 0 0 0 0 0 0 0 0 0 0 0 0 0 0 0 0 0 0 0 0 0 465 722 540 176 235 255 117 7 0 0 0 0 0 0 0 0 0 0 0 0
0 0 0 0 0 0 0 0 0 0 0 0 0 0 0 0 0 0 0 0 0 0 0 0 10 668 554 303 193 219 43 0 0 0 0 0 0 0 0 0 0 0 0 0
0 0 0 0 0 0 0 0 0 0 0 0 0 0 0 0 0 0 0 0 0 0 0 0 0 0 484 323 209 119 0 0 0 0 0 0 0 0 0 0 0 0 0 0
0 0 0 0 0 0 0 0 0 0 0 0 0 0 0 0 0 0 0 0 0 0 0 0 0 66 268 309 170 10 0 0 0 0 0 0 0 0 0 0 0 0 0 0
0 0 0 0 0 0 0 0 0 0 0 0 0 0 0 0 0 0 0 0 0 0 0 0 0 80 374 139 43 0 0 0 0 0 0 0 0 0 0 0 0 0 0 0
CIN
-0 -0 -0 -0 -0 -0 -0 -0 -0 -0 -0 -0 -0 -0 -0 -0 -0 -0 -0 -0 -0 -112 -102 -176 -174 -248 -289 -340 -385 -368 -335 -347 -317 -336 -351 -328 -256 -239 -248 -219 -238 -274 -270 -296
-0 -0 -0 -0 -0 -0 -0 -0 -0 -0 -0 -0 -0 -0 -0 -0 -0 -0 -0 -0 -0 -66 -130 -169 -238 -280 -278 -292 -323 -360 -358 -354 -347 -298 -293 -276 -261 -256 -241 -232 -265 -313 -290 -258
-0 -0 -0 -0 -0 -0 -0 -0 -0 -0 -0 -0 -0 -0 -0 -0 -0 -0 -0 -0 -0 -0 -68 -183 -219 -236 -291 -309 -365 -364 -365 -352 -385 -348 -303 -282 -279 -301 -284 -313 -291 -364 -353 -373
-0 -0 -0 -0 -0 -0 -0 -0 -0 -0 -0 -0 -0 -0 -0 -0 -0 -0 -0 -0 -0 -0 -0 -136 -183 -290 -268 -320 -405 -374 -386 -351 -332 -312 -255 -218 -199 -204 -270 -353 -374 -373 -369 -374
-0 -0 -0 -0 -0 -0 -0 -0 -0 -0 -0 -0 -0 -0 -0 -0 -0 -0 -0 -0 -0 -0 -85 -125 -198 -285 -403 -340 -285 -294 -272 -258 -233 -210 -197 -172 -160 -202 -353 -401 -375 -340 -424 -103
-0 -0 -0 -0 -0 -0 -0 -0 -0 -0 -0 -0 -0 -0 -0 -0 -0 -0 -2 -62 -88 -84 -118 -165 -248 -270 -233 -218 -221 -205 -184 -162 -146 -118 -109 -102 -116 -182 -250 -350 -330 -380 -461 -526
-0 -0 -0 -0 -0 -0 -0 -0 -0 -0 -0 -0 -0 -0 -0 -0 -0 -0 -0 -92 -68 -80 -144 -109 -139 -154 -163 -180 -186 -187 -168 -126 -91 -91 -85 -60 -71 -133 -170 -261 -294 -338 -437 -56
-0 -0 -0 -0 -0 -0 -0 -0 -0 -0 -0 -0 -0 -0 -0 -0 -0 -0 -0 -0 -0 -118 -92 -109 -113 -132 -153 -156 -179 -196 -207 -167 -132 -82 -53 -68 -110 -176 -226 -271 -315 -368 -372 -403
-0 -0 -0 -0 -0 -0 -0 -0 -0 -0 -0 -0 -0 -0 -0 -0 -78 -0 -0 -0 -0 -136 -139 -91 -135 -142 -117 -188 -223 -221 -210 -174 -137 -114 -89 -131 -149 -179 -264 -386 -417 -377 -453 -0
-0 -0 -0 -0 -0 -0 -0 -0 -0 -0 -0 -0 -0 -0 -0 -0 -0 -0 -0 -0 -0 -142 -59 -76 -73 -112 -190 -181 -211 -250 -223 -184 -192 -174 -142 -189 -263 -355 -536 -0 -0 -0 -0 -0
-0 -0 -0 -0 -0 -0 -0 -0 -0 -0 -0 -0 -0 -0 -0 -0 -0 -0 -0 -0 -0 -47 -86 -70 -99 -168 -162 -222 -257 -281 -272 -239 -255 -243 -267 -343 -411 -462 -448 -71 -0 -0 -0 -0
-0 -0 -0 -0 -0 -0 -0 -0 -0 -0 -0 -0 -0 -0 -0 -0 -0 -0 -0 -0 -0 -233 -144 -87 -90 -114 -179 -228 -320 -287 -262 -244 -283 -285 -387 -507 -601 -636 -0 -0 -0 -0 -0 -0
-0 -0 -0 -0 -0 -0 -0 -0 -0 -0 -0 -0 -0 -0 -0 -0 -0 -0 -0 -13 -130 -150 -205 -170 -124 -136 -142 -210 -297 -275 -258 -237 -286 -326 -454 -520 -513 -591 -0 -0 -0 -0 -0 -0
-0 -0 -0 -0 -0 -0 -0 -0 -0 -0 -0 -0 -0 -0 -0 -0 -0 -0 -149 -166 -168 -157 -210 -216 -160 -162 -207 -229 -283 -256 -275 -318 -332 -395 -399 -433 -549 -0 -0 -0 -0 -0 -0 -0
-0 -0 -0 -0 -0 -0 -0 -0 -0 -0 -0 -0 -0 -0 -0 -0 -165 -182 -220 -234 -212 -230 -238 -264 -216 -188 -215 -249 -242 -245 -280 -336 -368 -348 -376 -489 -247 -0 -0 -0 -0 -0 -0 -0
-0 -0 -0 -0 -0 -0 -0 -0 -0 -0 -0 -0 -0 -0 -0 -243 -305 -331 -407 -354 -340 -354 -302 -297 -249 -247 -208 -216 -218 -273 -296 -332 -332 -340 -362 -0 -0 -0 -0 -0 -0 -0 -0 -0
-0 -0 -0 -0 -0 -0 -0 -0 -0 -0 -0 -0 -0 -0 -0 -0 -0 -0 -0 -0 -0 -0 -404 -314 -205 -164 -173 -197 -258 -270 -0 -13 -271 -302 -450 -0 -0 -0 -0 -0 -0 -0 -0 -0
-0 -0 -0 -0 -0 -0 -0 -0 -0 -0 -0 -0 -170 -0 -0 -0 -0 -0 -0 -0 -0 -0 -373 -240 -171 -142 -258 -262 -273 -237 -0 -0 -0 -0 -0 -0 -0 -0 -0 -0 -0 -0 -0 -0
-0 -0 -0 -0 -0 -0 -0 -0 -0 -0 -0 -0 -0 -0 -0 -0 -0 -0 -0 -0 -0 -0 -0 -187 -147 -156 -197 -224 -239 -245 -399 -444 -0 -0 -0 -0 -0 -0 -0 -0 -0 -0 -0 -0
-0 -0 -0 -0 -0 -0 -0 -0 -0 -0 -0 -0 -0 -0 -0 -0 -0 -0 -0 -0 -0 -0 -347 -189 -129 -156 -161 -288 -353 -368 -394 -406 -0 -0 -22 -0 -0 -0 -0 -0 -0 -0 -0 -0
-0 -0 -0 -0 -0 -0 -0 -0 -0 -0 -0 -0 -0 -0 -0 -0 -0 -0 -0 -0 -0 -0 -196 -94 -107 -114 -168 -277 -291 -248 -73 -215 -192 -0 -0 -0 -0 -0 -0 -0 -0 -0 -0 -0
-0 -0 -0 -0 -0 -0 -0 -0 -0 -0 -0 -0 -0 -0 -0 -0 -0 -0 -0 -0 -0 -0 -0 -0 -140 -104 -145 -239 -185 -141 -160 -294 -0 -0 -0 -0 -0 -0 -0 -0 -0 -0 -0 -0
-0 -0 -0 -0 -0 -0 -0 -0 -0 -0 -0 -0 -0 -0 -0 -0 -0 -0 -0 -0 -0 -0 -0 -0 -153 -79 -93 -145 -160 -123 -210 -0 -0 -0 -0 -0 -0 -0 -0 -0 -0 -0 -0 -0
-0 -0 -0 -0 -0 -0 -0 -0 -0 -0 -0 -0 -0 -0 -0 -0 -0 -0 -0 -0 -0 -0 -0 -0 -0 -0 -55 -75 -100 -143 -0 -0 -0 -0 -0 -0 -0 -0 -0 -0 -0 -0 -0 -0
-0 -0 -0 -0 -0 -0 -0 -0 -0 -0 -0 -0 -0 -0 -0 -0 -0 -0 -0 -0 -0 -0 -0 -0 -0 -122 -80 -62 -81 -193 -0 -0 -0 -0 -0 -0 -0 -0 -0 -0 -0 -0 -0 -0
-0 -0 -0 -0 -0 -0 -0 -0 -0 -0 -0 -0 -0 -0 -0 -0 -0 -0 -0 -0 -0 -0 -0 -0 -0 -87 -43 -73 -109 -0 -0 -0 -0 -0 -0 -0 -0 -0 -0 -0 -0 -0 -0 -0
Wind_Speed
15 15 12 12 8 7 18 29 35 30 29 30 27 23 11 3 19 28 31 10 7 12 20 15 15 16 15 14 14 13 13 13 13 9 6 5 6 3 3 3 1 1 1 4
17 17 12 10 2 19 22 23 28 29 31 32 33 29 27 29 30 31 32 33 11 8 11 13 15 13 14 15 14 13 14 13 11 8 6 4 5 4 5 4 2 2 4 9
13 11 21 21 30 23 24 27 30 31 32 28 32 34 35 37 34 36 38 30 24 9 14 15 17 22 15 16 14 12 13 11 9 7 5 6 6 10 10 7 4 5 7 7
15 10 21 26 23 19 23 24 25 29 30 31 29 36 34 31 32 34 37 22 16 5 9 13 20 21 19 17 11 9 8 8 7 7 7 8 9 10 11 8 6 7 7 10
7 23 25 26 24 18 22 21 25 25 28 26 26 25 23 31 29 32 28 11 11 4 5 9 11 10 7 7 7 6 8 10 10 10 10 11 12 13 12 8 7 7 9 8
19 19 12 13 16 15 20 22 25 23 22 21 24 23 27 33 32 29 22 12 12 9 8 8 5 4 6 8 6 6 8 10 11 11 12 12 12 12 11 10 8 7 8 11
22 10 11 13 10 7 17 16 21 22 20 18 28 25 26 26 29 26 21 17 13 10 8 7 5 4 5 3 2 2 6 10 10 11 14 14 14 14 12 9 8 6 6 10
17 18 24 20 10 10 12 14 12 14 15 6 26 21 23 25 21 22 21 23 21 18 7 5 7 8 8 5 2 4 6 10 12 14 15 16 15 13 11 9 8 6 9 9
14 12 23 20 19 9 12 11 11 11 12 12 12 19 19 24 24 24 22 23 25 22 7 4 3 3 6 4 5 7 7 8 9 12 13 12 10 8 7 7 8 9 11 11
15 16 18 21 20 16 23 20 16 17 11 11 12 15 15 26 28 25 23 22 22 21 15 9 3 2 5 5 5 6 5 5 9 11 10 9 10 9 10 11 12 14 13 13
20 19 20 19 18 21 29 26 22 16 12 13 14 15 11 25 26 25 24 21 24 21 19 6 6 4 5 5 4 4 6 7 8 10 10 9 9 9 11 12 12 13 14 15
23 21 23 21 25 21 17 18 23 22 24 15 14 13 17 23 24 23 24 25 25 24 23 12 4 2 4 7 7 7 10 9 7 9 10 9 8 9 10 11 11 12 15 17
23 23 27 31 24 19 17 22 25 22 22 23 26 22 22 22 22 22 24 25 22 25 29 19 9 6 7 8 7 6 7 8 9 9 10 10 9 9 11 11 11 12 15 18
22 21 23 26 27 26 29 34 29 25 27 30 27 31 34 33 35 32 26 23 25 26 29 29 20 14 11 10 5 5 6 6 7 9 9 9 9 10 11 12 13 14 16 19
23 25 26 27 29 31 31 35 38 35 30 33 39 41 35 33 24 25 24 23 25 27 29 32 34 28 16 12 8 8 6 6 7 11 11 11 11 12 13 14 14 15 18 19
27 27 27 28 28 30 33 33 34 36 39 37 38 34 30 17 20 24 25 26 27 29 30 34 36 33 16 11 10 9 7 7 5 11 14 13 13 12 12 13 14 16 18 20
26 26 29 31 30 33 33 31 31 31 28 31 34 37 26 22 22 23 26 28 29 31 33 35 36 36 28 20 15 21 23 21 11 7 14 13 13 13 13 12 14 18 18 18
25 25 27 34 32 33 27 26 25 24 26 26 25 26 21 18 19 23 26 29 32 31 32 34 35 35 27 16 13 11 19 9 2 9 11 14 13 12 12 12 15 16 18 21
17 21 27 30 28 31 34 23 27 29 24 28 26 24 25 23 24 27 29 30 32 32 32 31 32 33 28 22 16 15 16 11 8 12 11 13 11 12 14 14 16 18 20 23
15 17 20 24 29 30 22 25 31 27 26 33 29 24 23 23 27 27 28 31 33 34 34 31 31 32 30 26 21 18 14 10 11 12 13 15 11 12 14 16 16 19 21 19
25 24 23 25 29 28 24 26 28 28 27 28 29 28 26 24 22 24 27 30 31 32 33 32 31 31 28 23 18 15 13 12 13 13 16 14 14 15 15 17 20 21 21 20
28 28 28 26 30 38 31 30 30 21 19 23 27 29 31 30 30 30 31 33 33 34 36 36 34 31 26 22 19 18 16 16 13 12 13 14 16 17 17 19 22 20 21 23
26 24 27 25 25 23 28 25 25 25 27 26 28 31 35 37 37 36 37 37 36 33 36 38 35 31 25 21 18 18 17 12 12 11 12 14 17 18 19 20 19 20 23 24
27 25 29 34 25 32 30 26 29 31 29 28 30 35 39 44 43 42 42 41 39 35 37 40 36 35 26 20 18 16 12 10 9 11 12 16 17 18 22 25 22 21 21 24
26 33 35 37 39 36 28 32 34 36 34 32 31 31 36 39 42 40 38 36 38 40 40 40 38 36 22 19 17 14 11 9 9 11 13 16 18 20 22 25 24 23 24 24
28 33 33 34 34 35 36 39 39 39 40 39 39 41 42 40 44 44 42 42 42 42 37 38 35 31 21 17 13 15 12 10 10 12 13 17 19 20 19 20 23 26 25 27
Wind_Direction
333 340 345 342 4 354 327 307 283 301 317 316 321 340 11 28 331 311 289 338 207 216 207 199 188 178 178 176 171 175 176 178 179 184 187 201 213 244 301 331 308 4 342 346
319 318 351 5 218 324 326 325 314 312 308 315 305 313 320 304 306 306 272 251 257 235 208 211 198 190 189 188 184 184 184 183 189 200 217 253 247 284 306 304 306 319 320 315
330 341 323 326 294 314 321 316 311 311 313 327 316 299 299 278 295 286 285 252 231 238 202 198 198 192 192 192 196 198 191 192 198 213 237 302 306 317 315 310 314 315 322 330
323 271 326 312 321 328 320 330 320 315 320 314 330 300 299 303 285 281 291 223 197 311 181 180 189 192 195 194 195 201 207 218 249 251 256 266 270 281 293 283 292 311 320 327
92 253 280 287 323 342 334 333 326 323 316 321 331 339 330 312 312 314 321 344 351 41 126 156 170 190 211 202 208 238 262 276 277 267 267 267 281 296 305 302 306 314 328 345
221 228 204 193 236 10 346 342 332 333 327 321 336 342 323 328 322 324 310 13 26 44 60 34 100 133 173 174 192 217 262 278 282 287 280 280 282 300 302 301 306 315 334 344
275 209 211 186 178 143 26 24 357 351 345 333 327 331 328 330 358 11 332 350 9 22 21 69 70 83 140 164 170 299 300 305 305 297 302 299 292 294 294 295 308 315 328 341
330 331 322 320 117 64 50 42 42 21 12 3 333 337 342 334 333 349 352 357 343 328 42 75 101 113 124 126 63 2 337 322 321 317 311 310 304 303 306 313 319 321 332 349
348 359 325 338 339 38 17 20 31 24 24 19 38 358 339 333 333 329 331 339 335 342 15 99 36 72 119 43 26 10 355 345 341 338 329 328 326 328 335 346 344 336 342 346
330 333 333 326 333 2 352 354 8 7 26 24 16 6 7 333 325 338 347 346 347 353 5 339 5 71 5 29 30 14 5 360 355 360 0 354 352 351 351 351 346 347 351 350
314 315 318 324 330 328 315 328 341 352 3 1 359 358 10 336 337 333 345 343 343 335 335 324 333 353 356 2 17 7 5 9 4 9 7 3 358 358 350 348 350 352 352 351
316 319 312 318 312 323 333 345 343 340 334 336 338 346 343 334 335 334 331 323 330 335 339 353 350 345 338 338 360 1 357 345 357 6 10 12 9 357 351 352 352 351 347 346
321 315 313 301 317 327 322 321 327 333 337 333 330 333 341 338 337 340 335 333 341 326 336 334 331 322 323 326 337 349 359 11 2 3 2 2 359 357 349 351 353 353 351 347
322 317 314 307 306 311 306 298 311 322 319 318 319 318 314 318 314 321 327 332 332 330 334 339 330 319 310 318 323 331 344 13 20 7 6 357 350 348 351 352 351 350 349 346
314 307 308 309 307 302 304 301 297 305 311 307 303 302 314 317 328 331 334 333 331 333 331 327 322 319 311 311 314 322 321 357 12 10 357 355 351 347 346 348 348 347 345 346
314 307 308 306 311 311 304 305 304 302 301 302 303 308 317 325 329 331 330 327 327 328 330 331 325 325 315 287 313 293 319 324 11 358 357 351 350 351 352 352 349 347 345 345
311 311 307 302 306 308 307 309 309 311 317 312 309 311 316 317 324 328 331 331 326 325 327 326 324 320 322 324 325 327 325 346 335 7 5 358 357 357 357 359 356 348 349 354
302 305 306 300 305 302 310 311 316 323 328 325 325 332 339 340 336 333 332 330 329 331 329 324 325 329 335 337 341 347 344 2 69 36 22 7 9 9 9 3 360 1 358 353
297 299 301 299 302 305 306 310 322 321 325 333 331 332 331 325 323 326 330 332 331 331 331 331 330 331 335 338 336 334 347 11 25 19 33 21 26 17 10 7 4 2 358 353
326 311 301 305 305 306 314 321 327 323 311 329 328 331 330 329 315 316 325 328 328 327 328 330 330 331 332 337 337 334 345 1 357 9 18 20 34 19 11 10 9 5 4 12
310 309 298 300 302 309 315 321 324 312 312 333 338 335 335 327 326 324 326 326 334 333 332 331 332 332 334 347 355 349 344 339 348 3 15 27 26 18 16 9 0 4 6 6
304 303 303 305 302 302 315 313 314 320 326 327 328 330 324 320 316 317 321 321 321 329 328 329 325 327 333 339 348 349 341 337 347 3 15 18 12 10 11 5 2 0 1 2
303 313 308 308 308 324 332 331 331 331 323 319 314 308 311 311 310 311 310 314 316 323 324 322 322 320 327 331 339 344 347 355 0 11 11 12 7 13 11 11 15 9 6 5
310 317 308 307 310 312 316 322 325 325 321 316 311 306 300 298 299 304 305 302 307 313 318 320 318 317 320 321 329 335 353 6 10 9 9 5 11 12 7 2 9 10 17 16
312 310 306 303 304 307 307 315 318 316 315 311 309 308 300 298 291 299 306 308 307 307 311 316 311 311 318 319 323 331 341 357 4 5 3 4 7 5 7 7 17 19 20 21
309 305 303 302 309 308 308 311 309 307 305 303 303 301 299 300 295 296 300 303 300 300 307 311 312 314 318 323 326 325 330 342 350 6 2 3 6 7 20 26 21 22 25 22